This is the latest recevied weather packets stored in our database for station/object KI5RAB. If no packets are shown the sender has not sent any weather packets the latest 1 day(s).
| Time | Temp. | Humidity | Pressure | Rain* | Wind** | Luminosity | Snow |
|---|---|---|---|---|---|---|---|
| 1778012833 | 30° C | 67% | 1010.4 hPa | 0 mm | 0 m/s | 446 W/m² | - |
| 1778012530 | 30° C | 70% | 1010.3 hPa | 0 mm | 0 m/s | 279 W/m² | - |
| 1778012226 | 30° C | 69% | 1010.3 hPa | 0 mm | 0.89 m/s, 7° | 279 W/m² | - |
| 1778011927 | 30° C | 68% | 1010.3 hPa | 0 mm | 0 m/s | 240 W/m² | - |
| 1778011622 | 30.56° C | 65% | 1010.5 hPa | 0 mm | 0 m/s | 297 W/m² | - |
| 1778011319 | 30° C | 68% | 1010.7 hPa | 0 mm | 0 m/s | 586 W/m² | - |
| 1778011014 | 28.89° C | 70% | 1010.4 hPa | 0 mm | 0.89 m/s, 284° | 436 W/m² | - |
| 1778010712 | 29.44° C | 70% | 1010.6 hPa | 0 mm | 0.45 m/s, 333° | 690 W/m² | - |
| 1778010409 | 28.89° C | 71% | 1010.6 hPa | 0 mm | 0.89 m/s, 271° | 318 W/m² | - |
| 1778010105 | 30° C | 68% | 1010.7 hPa | 0 mm | 0.89 m/s, 196° | 304 W/m² | - |
| 1778009802 | 30° C | 68% | 1010.8 hPa | 0 mm | 0.45 m/s, 334° | 692 W/m² | - |
| 1778009499 | 29.44° C | 71% | 1010.9 hPa | 0 mm | 0.45 m/s, 347° | 737 W/m² | - |
| 1778009198 | 28.89° C | 70% | 1010.8 hPa | 0 mm | 0.89 m/s, 317° | 778 W/m² | - |
| 1778008894 | 28.89° C | 72% | 1010.7 hPa | 0 mm | 0.45 m/s, 304° | 314 W/m² | - |
| 1778008593 | 29.44° C | 70% | 1010.9 hPa | 0 mm | 0.89 m/s, 339° | 816 W/m² | - |
| 1778008291 | 28.89° C | 70% | 1011.1 hPa | 0 mm | 0.89 m/s, 18° | 460 W/m² | - |
| 1778007986 | 28.89° C | 73% | 1011.3 hPa | 0 mm | 0.45 m/s, 335° | 318 W/m² | - |
| 1778007681 | 28.33° C | 71% | 1011 hPa | 0 mm | 0.45 m/s, 250° | 796 W/m² | - |
| 1778007378 | 28.33° C | 73% | 1011.6 hPa | 0 mm | 0.45 m/s, 315° | 272 W/m² | - |
| 1778007074 | 27.78° C | 74% | 1011.5 hPa | 0 mm | 0 m/s | 330 W/m² | - |
| 1778006771 | 27.78° C | 75% | 1011.7 hPa | 0 mm | 0.45 m/s, 291° | 754 W/m² | - |
| 1778006468 | 27.78° C | 75% | 1011.5 hPa | 0 mm | 0 m/s | 263 W/m² | - |
| 1778006165 | 27.78° C | 75% | 1011.8 hPa | 0 mm | 0 m/s | 282 W/m² | - |
| 1778005863 | 27.22° C | 76% | 1011.8 hPa | 0 mm | 0 m/s | 352 W/m² | - |
| 1778005558 | 26.67° C | 77% | 1011.9 hPa | 0 mm | 0.45 m/s, 318° | 307 W/m² | - |
* Rain latest hour (hover to see other rain measurements)
** Current wind speed in m/s (hover to see current wind gust speed)